�������r�C�����j�^�v���󋵏��
Date,Time,5�C6���@���p�r�C��,����,����(m/s)
2022/02/17,00:00,4.1,�k,3.8
2022/02/17,00:10,4.0,�k,4.5
2022/02/17,00:20,4.1,�k,4.8
2022/02/17,00:30,4.3,�k,4.4
2022/02/17,00:40,4.2,�k�k��,4.1
2022/02/17,00:50,4.1,�k�k��,4.3
2022/02/17,01:00,4.2,�k�k��,5.0
2022/02/17,01:10,4.1,�k�k��,4.5
2022/02/17,01:20,4.2,�k�k��,4.5
2022/02/17,01:30,4.1,�k�k��,4.2
2022/02/17,01:40,4.2,�k��,2.9
2022/02/17,01:50,4.1,���k��,3.0
2022/02/17,02:00,3.9,���k��,4.4
2022/02/17,02:10,4.1,���k��,4.6
2022/02/17,02:20,4.1,��,4.0
2022/02/17,02:30,4.1,���k��,4.3
2022/02/17,02:40,3.9,���k��,3.5
2022/02/17,02:50,4.2,���k��,4.2
2022/02/17,03:00,4.0,���k��,3.4
2022/02/17,03:10,4.1,�k��,3.2
2022/02/17,03:20,4.0,�k��,3.5
2022/02/17,03:30,4.3,�k��,4.6
2022/02/17,03:40,4.0,�k��,4.9
2022/02/17,03:50,4.1,�k��,5.6
2022/02/17,04:00,4.0,�k��,5.3
2022/02/17,04:10,4.0,�k��,4.2
2022/02/17,04:20,3.9,�k��,4.9
2022/02/17,04:30,4.2,�k��,6.0
2022/02/17,04:40,4.3,�k��,6.9
2022/02/17,04:50,4.1,�k��,5.5
2022/02/17,05:00,4.1,�k��,4.5
2022/02/17,05:10,4.3,�k��,5.1
2022/02/17,05:20,4.0,�k�k��,6.3
2022/02/17,05:30,4.0,�k��,7.0
2022/02/17,05:40,4.1,�k��,6.7
2022/02/17,05:50,4.1,�k��,6.0
2022/02/17,06:00,4.2,�k��,7.4
2022/02/17,06:10,3.9,�k��,5.7
2022/02/17,06:20,4.0,�k��,4.9
2022/02/17,06:30,4.1,�k��,6.1
2022/02/17,06:40,4.0,�k��,6.4
2022/02/17,06:50,4.2,�k��,5.5
2022/02/17,07:00,4.1,���k��,5.8
2022/02/17,07:10,4.1,���k��,5.3
2022/02/17,07:20,4.2,���k��,6.2
2022/02/17,07:30,4.0,���k��,6.5
2022/02/17,07:40,4.2,�k��,4.0
2022/02/17,07:50,4.1,�k��,4.4
2022/02/17,08:00,4.1,�k��,4.0
2022/02/17,08:10,4.0,�k�k��,5.5
2022/02/17,08:20,4.0,�k��,5.0
2022/02/17,08:30,4.1,�k��,6.7
2022/02/17,08:40,4.2,�k��,6.5
2022/02/17,08:50,4.0,�k��,6.6
2022/02/17,09:00,4.1,�k��,6.1
2022/02/17,09:10,4.2,�k��,5.9
2022/02/17,09:20,4.0,�k�k��,4.7
2022/02/17,09:30,4.1,�k�k��,5.0
2022/02/17,09:40,4.1,�k�k��,5.3
2022/02/17,09:50,4.3,�k�k��,6.0
2022/02/17,10:00,4.1,�k��,5.9
2022/02/17,10:10,3.9,�k��,4.6
2022/02/17,10:20,4.2,�k��,5.3
2022/02/17,10:30,4.2,�k��,7.3
2022/02/17,10:40,4.0,�k��,6.9
2022/02/17,10:50,4.2,�k��,7.1
2022/02/17,11:00,4.1,���k��,5.4
2022/02/17,11:10,4.2,�k��,4.5
2022/02/17,11:20,4.1,�k��,6.2
2022/02/17,11:30,4.1,�k��,5.0
2022/02/17,11:40,3.9,���k��,6.0
2022/02/17,11:50,4.2,���k��,6.1
2022/02/17,12:00,4.2,�k��,8.4
2022/02/17,12:10,4.1,�k��,10.2
2022/02/17,12:20,4.1,�k��,7.8
2022/02/17,12:30,4.1,���k��,7.5
2022/02/17,12:40,4.0,�k��,6.8
2022/02/17,12:50,4.0,�k�k��,7.8
2022/02/17,13:00,4.0,�k�k��,8.1
2022/02/17,13:10,4.0,�k��,6.6
2022/02/17,13:20,4.0,���k��,8.2
2022/02/17,13:30,4.3,���k��,8.8
2022/02/17,13:40,4.1,�k��,5.2
2022/02/17,13:50,4.1,���k��,4.7
2022/02/17,14:00,4.2,�k��,6.6
2022/02/17,14:10,4.0,�k��,6.0
2022/02/17,14:20,4.0,�k�k��,6.0
2022/02/17,14:30,4.1,�k,5.7
2022/02/17,14:40,4.0,�k��,7.4
2022/02/17,14:50,4.2,���k��,5.6
2022/02/17,15:00,4.0,���k��,6.7
2022/02/17,15:10,4.0,���k��,4.4
2022/02/17,15:20,4.1,�k,4.5
2022/02/17,15:30,4.2,��,6.0
2022/02/17,15:40,4.1,��,7.0
2022/02/17,15:50,4.3,��,8.9
2022/02/17,16:00,4.1,��,6.5
2022/02/17,16:10,4.1,��,7.3
2022/02/17,16:20,4.0,��,6.5
2022/02/17,16:30,4.2,��,7.5
2022/02/17,16:40,4.0,��,8.0
2022/02/17,16:50,3.9,��,6.6
2022/02/17,17:00,4.1,��,5.1
2022/02/17,17:10,4.1,��,6.8
2022/02/17,17:20,4.0,��,7.6
2022/02/17,17:30,3.9,��,7.1
2022/02/17,17:40,4.0,��,7.3
2022/02/17,17:50,4.0,��,7.3
2022/02/17,18:00,4.0,���k��,7.1
2022/02/17,18:10,4.1,��,7.6
2022/02/17,18:20,4.3,��,6.4
2022/02/17,18:30,4.1,��,6.8
2022/02/17,18:40,4.1,��,6.2
2022/02/17,18:50,4.0,���k��,5.2
2022/02/17,19:00,4.3,���k��,5.4
2022/02/17,19:10,4.0,���k��,4.7
2022/02/17,19:20,3.9,���k��,6.3
2022/02/17,19:30,4.1,��,5.3
2022/02/17,19:40,4.1,��,5.5
2022/02/17,19:50,4.1,��,5.8
2022/02/17,20:00,4.0,��,5.7
2022/02/17,20:10,4.0,��,4.3
2022/02/17,20:20,3.9,��,4.7
2022/02/17,20:30,4.0,��,4.8
2022/02/17,20:40,4.0,���k��,4.2
2022/02/17,20:50,4.0,��,5.6
2022/02/17,21:00,4.1,���k��,3.8
2022/02/17,21:10,4.1,��,3.9
2022/02/17,21:20,4.2,��,3.2
2022/02/17,21:30,4.1,��,4.9
2022/02/17,21:40,4.0,��,6.1
2022/02/17,21:50,4.1,��,5.2
2022/02/17,22:00,4.2,��,4.7
2022/02/17,22:10,4.0,��,3.5
2022/02/17,22:20,4.0,��,4.4
2022/02/17,22:30,3.8,��,5.7
2022/02/17,22:40,4.0,���쐼,5.5
2022/02/17,22:50,4.2,��,7.2
2022/02/17,23:00,4.2,��,6.1
2022/02/17,23:10,4.2,��,6.2
2022/02/17,23:20,4.2,���쐼,7.4
2022/02/17,23:30,4.1,���쐼,8.4
2022/02/17,23:40,4.1,���쐼,8.6
2022/02/17,23:50,4.0,���쐼,7.2
